Regional Weather Roundup
Issued by NWS Charleston, SC

Current Version | Previous Version | Text Only | Print | Product List | Glossary Off
Versions: 1 2 3 4 5 6 7 8 9 10 11 12 13 14 15 16 17 18 19 20 21 22 23 24 25 26 27 28 29 30 31 32 33 34 35 36 37 38 39 40 41 42 43 44 45 46 47 48 49 50
000 ASUS42 KCHS 151527 RWRCHS Regional Weather Roundup National Weather Service Charleston SC 1000 AM EST FRI DEC 15 2017 NOTE: "fair" indicates few or no clouds below 12,000 feet with no significant weather and/or obstructions to visibility. Not all stations are quality controlled. Use data with caution, especially dewpoint observations. SCZ027-030-031-034>040-042>050-151600- ...Southeast South Carolina... CITY SKY/WX TMP DP RH WIND PRES REMARKS N Charleston PTSUNNY 53 41 63 W5 30.03R Waterfront Prk N/A 52 43 71 CALM 29.88R Mount Pleasant FAIR 55 43 62 W3 30.04R Johns Island FAIR 59 41 51 SW6 30.03S Pinopolis N/A 46 43 87 SW5 29.95R Moncks Corner FAIR 50 41 71 CALM 30.03R Summerville FAIR 50 41 71 CALM 30.04R Beaufort MCAS CLOUDY 54 44 69 SW5 30.04R Beaufort Arpt FAIR 54 43 66 SW5 30.04S Hilton Head Is PTSUNNY 55 41 58 W5 30.05R Walterboro MOSUNNY 52 41 66 SW5 30.05S Allendale FAIR 52 39 62 W6 30.03R ...Southern Midlands and Pee Dee... CITY SKY/WX TMP DP RH WIND PRES REMARKS Georgetown FAIR 50 41 71 SW6 30.04R Kingstree FAIR 50 39 66 CALM 30.02S Orangeburg CLOUDY 49 40 71 CALM 30.02R Barnwell N/A 52 41 66 SW3 30.03S Aiken FAIR 46 37 71 W5 30.05R Manning FAIR 50 37 62 MISG 30.02S Columbia PTSUNNY 46 40 79 CALM 30.00S Sumter PTSUNNY 47 37 67 W6 29.99R Florence MOSUNNY 48 38 68 SW5 30.00R Myrtle Beach MOSUNNY 52 41 66 SW5 30.03R N Myrtle Beach MOSUNNY 51 41 68 W5 30.01R $$ GAZ063-065-086>088-099>101-113>116-118-119-134>141-150-151600- ...Southeast Georgia... CITY SKY/WX TMP DP RH WIND PRES REMARKS Savannah Arpt CLOUDY 53 42 66 W6 30.05R Hunter AAF CLOUDY 53 44 70 SW5 30.02R Fort Stewart CLOUDY 52 43 71 SW6 30.04R Statesboro CLOUDY 53 40 61 CALM 30.05S Sylvania CLOUDY 52 44 72 CALM 30.04S Claxton FAIR 52 44 75 S5 30.05S ...CSRA, Central and far Southeast Georgia... CITY SKY/WX TMP DP RH WIND PRES REMARKS Thomson MOSUNNY 48 36 64 N8 30.10R Augusta-Bush CLOUDY 47 39 74 CALM 30.02R Augusta-Daniel CLOUDY 49 38 65 VRB3 30.03R Swainsboro FAIR 46 43 87 W5 30.06R Vidalia PTSUNNY 52 45 76 SW8 30.06R Eastman FAIR 51 35 53 W3 30.10R Hazlehurst FAIR 56 33 42 W5 30.05R Alma CLOUDY 53 44 71 SW3 30.06R Waycross CLOUDY 59 41 51 W3 30.06F Jesup FAIR 55 45 67 CALM 30.06 Baxley FAIR 52 45 76 CALM 30.05S Brunswick CLOUDY 59 43 55 SW6 30.08S Saint Simons PTSUNNY 57 48 72 SW6 30.06R $$ SCZ027-028-034-036>038-045-046-048>050-GAZ119-141-151600- ...Lake and Supplemental Coastal Observations... STATION/POSITION TIME TEMP WIND PRES WAVE SWELL AIR SEA DIR/SP/G HT/PER HT/PER/DIR (UTC) (F) (DEG/KT/KT) (MB) (FT/S) (FT/S/D) Winyah Bay 1445 50 220/ 3 1017.0R Lake Murray 1520 44 280/ 3/ 4 1015.6 ACE Basin NERRS 1445 54 250/ 1 1017.0R Fort Pulaski 1500 53 53 230/ 2/ 3 1017.6 Sapelo Island 1500 56 230/ 4 1018.0 $$ ANZ835-935-AMZ111-154-330-350-352-354-370-450-454-472-151600- ...C-MAN and Buoy Observations... STATION/POSITION TIME TEMP WIND PRES WAVE SWELL AIR SEA DIR/SP/G HT/PER HT/PER/DIR (UTC) (F) (DEG/KT/KT) (MB) (FT/S) (FT/S/D) Buoy 41004 1510 63 73 240/ 14/ 17 1016.8 Buoy 41008 1450 56 58 240/ 8/ 10 1018.0R 1/ 4 Folly Beach CMAN 1500 53 220/ 7/ 8 1017.3R Capers Nearshore 1508 52 54 250/ 6/ 10 1016.7R STATION/POSITION TIME TEMP WIND PRES WAVE SWELL AIR SEA DIR/SP/G HT/PER HT/PER/DIR (UTC) (F) (DEG/KT/KT) (MB) (FT/S) (FT/S/D) 5E St. Marys GA 1500 62 N/A 1 Frying Pan Buoy 1510 61 67 240/ 12/ 16 1016.1 Buoy 41025 1510 64 74 220/ 16/ 21 1015.0 Cape Lookout NC 1500 230/ 6/ 9 1015.7R Buoy 41002 1450 72 74 230/ 12/ 16 1017.1R 6/ 7 5/260/ 7 Buoy 41010 NOT AVBL St Augustine FL 1500 63 63 240/ 7/ 9 1019.0R $$

USA.gov is the U.S. government's official web portal to all federal, state and local government web resources and services.